Location: Albany
(35.0170°S, 117.8920°E)
Time: 17:27:15
(UTC+08:00)

Transit 2A - Pass Details

Date: 22 January 2021
Orbit: 601 x 958 km, 66.7° (Epoch: 02 March)

Event Time Altitude Azimuth Distance (km) Brightness Sun altitude
Rises 02:46:34 0° 219° (SW) 3,578 9.6 -25.1°
Reaches altitude 10° 02:49:21 10° 229° (SW) 2,663 8.8 -24.8°
Enters shadow 02:52:41 25° 256° (WSW) 1,823 7.7 -24.3°
Maximum altitude 02:54:42 30° 287° (WNW) 1,641 - -24.1°
Drops below altitude 10° 03:00:06 10° 346° (NNW) 2,682 - -23.4°
Sets 03:02:56 0° 356° (N) 3,607 - -23.0°
